Regional Weather Roundup
Issued by NWS

Home | Current Version | Previous Version | Text Only | Print | Product List | Glossary Off
Versions: 1 2 3 4 5 6 7 8 9 10 11 12 13 14 15 16 17 18 19 20 21 22 23 24 25 26 27 28 29 30 31 32 33 34 35 36 37 38 39 40 41 42 43 44 45 46 47 48 49 50

731
ASUS43 KDMX 110206
RWRIA

WEATHER ROUNDUP FOR IOWA
NATIONAL WEATHER SERVICE DES MOINES IA
800 PM CST SAT DEC 10 2016

NOTE: "FAIR" INDICATES FEW OR NO CLOUDS BELOW 12,000 FEET WITH NO
SIGNIFICANT WEATHER AND/OR OBSTRUCTIONS TO VISIBILITY.

* - THESE STATIONS ARE NOT NWS STATIONS...THUS NOT UNDER NWS
QUALITY CONTROL.  THEY ALSO DO NOT REPORT WEATHER SUCH
AS PRECIPITATION OR FOG.

IAZ001>003-012>014-020>022-031>034-043>046-110300-
   NORTHWEST IOWA

CITY           SKY/WX    TMP DP  RH WIND       PRES   REMARKS
CARROLL *      CLOUDY    23  21  93 SE17      30.04F WCI   9
CHEROKEE *     CLOUDY    22  20  92 SE8       30.04S WCI  13
DENISON *      CLOUDY    25  19  80 SE12G21   29.99F WCI  14
LE MARS *      CLOUDY    23  19  86 SE12G17   30.02F WCI  12
ORANGE CITY *  CLOUDY    21  19  93 SE6       30.01F WCI  14
SHELDON *      LGT SNOW  21  21 100 SE14G20   30.02R WCI   8
SIOUX CITY     CLOUDY    27  20  75 SE14      29.99F WCI  16
SPENCER        LGT SNOW  20  18  92 SE14      30.05F FOG     WCI   7
STORM LAKE *   LGT SNOW  21  19  93 SE16      30.03S WCI   7
$$

IAZ055>058-069>071-079>083-090>094-110300-
   SOUTHWEST IOWA

CITY           SKY/WX    TMP DP  RH WIND       PRES   REMARKS
ATLANTIC *     CLOUDY    28  19  69 SE8G15    30.02F WCI  20
AUDUBON *      CLOUDY    25  19  80 SE12      30.01F WCI  14
CLARINDA *     CLOUDY    30  19  64 SE12      30.04F WCI  21
COUNCIL BLFS * CLOUDY    30  19  64 SE14      29.99S WCI  20
CRESTON *      CLOUDY    28  19  69 SE13      30.04F WCI  18
HARLAN  *      CLOUDY    28  21  74 SE12      30.03F WCI  18
LAMONI         CLOUDY    30  16  56 SE10      30.05F WCI  21
RED OAK *      CLOUDY    30  19  64 SE12      30.01F WCI  21
SHENANDOAH *   CLOUDY    32  21  64 SE10G17   30.01F WCI  24
$$

IAZ047>049-059>061-072>074-084-110300-
   CENTRAL IOWA

CITY           SKY/WX    TMP DP  RH WIND       PRES   REMARKS
AMES           FLURRIES  23  20  88 SE12      30.10F WCI  12
ANKENY *       MIX PCPN  23  19  86 SE16      30.11F WCI  10
BOONE *        CLOUDY    23  19  86 SE15G23   30.07F WCI  10
CHARITON *     CLOUDY    27  19  74 SE12      30.08F WCI  16
DES MOINES     CLOUDY    26  18  71 SE10      30.10F WCI  16
GRINNELL*      CLOUDY    22  20  89 E14G21    30.13F WCI  10
KNOXVILLE *    CLOUDY    27  18  69 SE10      30.10S WCI  17
MARSHALLTOWN   CLOUDY    22  19  89 SE15      30.12F WCI   9
NEWTON *         N/A     23  19  86 E15       30.12F WCI  10
PELLA *        CLOUDY    25  19  80 SE12      30.14S WCI  14
PERRY *        CLOUDY    24  22  90 E14       30.08F WCI  12
$$

IAZ004>006-015-016-023>025-035-036-110300-
   NORTH CENTRAL IOWA

CITY           SKY/WX    TMP DP  RH WIND       PRES   REMARKS
ALGONA *       LGT SNOW  21  19  93 SE14G22   30.07F WCI   8
CLARION *      CLOUDY    21  19  93 SE17G24   30.10F FOG     WCI   7
ESTHERVILLE    LGT SNOW  17  16  95 SE14      30.07F FOG     WCI   3
FORT DODGE *   CLOUDY    21  16  79 SE14G20   30.09F WCI   8
MASON CITY     LGT SNOW  19  16  88 SE15      30.13F FOG     WCI   5
FOREST CITY *  LGT SNOW  19  18  93 SE13G20   30.11F WCI   7
WEBSTER CITY * LGT SNOW  23  21  93 SE20      30.06F WCI   8
IOWA FALLS *   CLOUDY    22  20  91 SE18      30.13F WCI   8
$$

IAZ007>011-017>019-026>030-037>042-050>054-066-110300-
   NORTHEAST IOWA

CITY           SKY/WX    TMP DP  RH WIND       PRES   REMARKS
CEDAR RAPIDS   CLOUDY    22  20  92 SE14      30.17F WCI   9
CHARLES CITY * LGT SNOW  19  18  93 SE14      30.17F WCI   6
CLINTON *      FLURRIES  22  20  92 SE16      30.26F WCI   8
DECORAH *      LGT SNOW  18  16  93 E9        30.19F WCI   6
DUBUQUE        CLOUDY    20  18  92 SE14      30.22F WCI   7
MONTICELLO *   CLOUDY    21  19  93 SE12      30.22F WCI   9
OELWEIN *      CLOUDY    21  19  93 SE15      30.18F WCI   8
WATERLOO       CLOUDY    21  18  88 SE13      30.17F WCI   9
$$

IAZ064-065-067-068-078-110300-
   EAST CENTRAL IOWA

CITY           SKY/WX    TMP DP  RH WIND       PRES   REMARKS
DAVENPORT      CLOUDY    22  19  89 SE16      30.25F WCI   8
IOWA CITY      CLOUDY    24  19  81 E12       30.22F WCI  13
MUSCATINE *    CLOUDY    25  19  80 SE12      30.23F WCI  14
QUAD CITIES    CLOUDY    24  18  77 E12       30.26F WCI  13
$$

IAZ062-063-075>077-085>089-095>099-110300-
   SOUTHEAST IOWA

CITY           SKY/WX    TMP DP  RH WIND       PRES   REMARKS
BURLINGTON     CLOUDY    27  18  69 SE12      30.20F WCI  17
FAIRFIELD *    CLOUDY    27  16  63 SE14      30.16F WCI  15
FORT MADISON * CLOUDY    28  18  64 SE10G17   30.20F WCI  19
KEOKUK *       CLOUDY    30  19  64 SE12      30.18F WCI  21
OSKALOOSA *    CLOUDY    25  20  81 SE13      30.14F WCI  13
CENTERVILLE *  CLOUDY    28  18  64 SE12      30.12F WCI  18
OTTUMWA        CLOUDY    27  16  63 SE14      30.14F WCI  16
WASHINGTON *   CLOUDY    25  21  86 SE15G22   30.19F WCI  12
$$

ABBREVIATIONS USED IN REMARKS
   TC - TEMPERATURES IN CELSIUS
  WCI - WIND CHILL INDEX
   HX - HEAT INDEX
  VSB - VISIBILITY
$$





USA.gov is the U.S. government's official web portal to all federal, state and local government web resources and services.